Location: Weatherford
(35.5260°N, 98.7070°W)
Time: 06:28:12
(UTC-06:00)

OPAL - Visible Passes

Search period start: 18 December 2014 00:00
Search period end: 28 December 2014 00:00
Orbit: 744 x 796 km, 100.2° (Epoch: 17 December)

Date Brightness Start Highest point End Pass type
(mag) Time Alt. Az. Time Alt. Az. Time Alt. Az.
18 Dec 8.1 05:21:24 10° SSE 05:26:12 54° ENE 05:29:01 24° N visible
18 Dec 9.1 07:02:47 10° SW 07:05:23 14° W 07:08:00 10° WNW visible
18 Dec 8.6 19:12:50 10° N 19:17:45 45° WNW 19:22:40 10° SW visible
19 Dec 9.5 04:47:15 10° ESE 04:51:11 24° ENE 04:53:16 18° NNE visible
19 Dec 8.1 06:25:24 10° SSW 06:29:51 34° W 06:33:34 14° NW visible
19 Dec 7.5 18:37:23 10° NNE 18:42:35 80° ESE 18:47:47 10° SSW visible
19 Dec 10.3 20:18:59 10° NW 20:20:45 12° WNW 20:22:31 10° W visible
20 Dec 10.3 04:15:12 10° ENE 04:16:21 11° ENE 04:17:30 10° NE visible
20 Dec 7.3 05:49:32 10° SSE 05:54:29 81° WSW 05:57:49 22° NNW visible
20 Dec 8.2 18:02:31 10° NE 18:07:15 35° E 18:11:58 10° SSE visible
20 Dec 9.5 19:41:42 10° NNW 19:45:54 26° WNW 19:50:07 10° WSW visible
21 Dec 8.5 05:14:38 10° SE 05:19:19 43° ENE 05:22:05 23° N visible
21 Dec 8.9 06:55:01 10° SW 06:58:21 18° W 07:01:44 10° NW visible
21 Dec 8.2 19:05:48 10° N 19:10:52 56° WNW 19:15:57 10° SSW visible
22 Dec 9.7 04:40:48 10° ESE 04:44:20 20° ENE 04:46:20 16° NE visible
22 Dec 7.8 06:18:11 10° S 06:22:52 42° W 06:26:38 15° NW visible
22 Dec 7.6 18:30:29 10° NNE 18:35:40 65° ESE 18:40:50 10° S visible
22 Dec 10.2 20:11:13 10° NNW 20:13:57 15° WNW 20:16:42 10° W visible
23 Dec 7.4 05:42:36 10° SSE 05:47:33 82° ENE 05:50:54 22° NNW visible
23 Dec 8.5 17:55:50 10° NE 18:00:17 28° E 18:04:43 10° SSE visible
23 Dec 9.2 19:34:32 10° N 19:39:04 31° WNW 19:43:35 10° SW visible
24 Dec 8.9 05:07:56 10° SE 05:12:26 35° ENE 05:15:10 20° NNE visible
24 Dec 8.6 06:47:29 10° SSW 06:51:20 23° W 06:55:15 10° NW visible
24 Dec 7.8 18:58:48 10° N 19:03:59 69° WNW 19:09:09 10° SSW visible
25 Dec 10.0 04:34:29 10° E 04:37:30 16° ENE 04:39:26 13° NE visible
25 Dec 7.6 06:11:03 10° S 06:15:53 53° WSW 06:19:45 16° NNW visible
25 Dec 7.7 18:23:38 10° NNE 18:28:44 52° ESE 18:33:48 10° S visible
25 Dec 10.0 20:03:45 10° NNW 20:07:09 18° WNW 20:10:33 10° WSW visible
26 Dec 7.8 05:35:42 10° SSE 05:40:37 66° ENE 05:44:01 21° N visible
26 Dec 8.8 17:49:13 10° NE 17:53:18 23° E 17:57:21 10° SSE visible
26 Dec 8.9 19:27:25 10° N 19:32:12 38° WNW 19:36:59 10° SW visible
27 Dec 9.2 05:01:18 10° SE 05:05:33 29° ENE 05:08:18 18° NNE visible
27 Dec 8.4 06:40:05 10° SSW 06:44:20 28° W 06:48:36 10° NW visible
27 Dec 7.6 18:51:51 10° NNE 18:57:05 85° WNW 19:02:18 10° SSW visible
